FW0837 Weather Reports


Display with metric or nautical units.
time (UTC)temp
F
wind
direction
speed
MPH
gust
MPH
rain 1hr
in
rain 24hr
in
rain mn
in
humidity
%
barometer
mb
20260508191048 58 251 8.0 12.0 0.00 0.00 0.00 34 1008.7
20260508190548 59 241 6.0 14.0 0.00 0.00 0.00 36 1008.7
20260508190103 60 252 9.0 15.0 0.00 0.00 0.00 34 1008.9
20260508185547 59 284 7.0 18.0 0.00 0.00 0.00 34 1008.8
20260508185048 59 241 5.0 20.0 0.00 0.00 0.00 35 1008.7
20260508184551 59 254 6.0 15.0 0.00 0.00 0.00 37 1008.7
20260508184050 58 269 7.0 14.0 0.00 0.00 0.00 36 1008.9
20260508183550 58 234 5.0 16.0 0.00 0.00 0.00 34 1008.6
20260508183047 59 277 6.0 16.0 0.00 0.00 0.00 36 1008.8
20260508182545 59 245 7.0 11.0 0.00 0.00 0.00 35 1008.7
20260508182045 58 247 3.0 14.0 0.00 0.00 0.00 36 1008.6
20260508181604 58 263 6.0 14.0 0.00 0.00 0.00 36 1008.7
20260508181044 58 233 6.0 16.0 0.00 0.00 0.00 35 1008.5
20260508180543 58 250 8.0 16.0 0.00 0.00 0.00 37 1008.6
20260508180053 58 291 6.0 15.0 0.00 0.00 0.00 40 1008.6
20260508175543 57 228 5.0 14.0 0.00 0.00 0.00 40 1008.8
20260508175044 57 245 4.0 19.0 0.00 0.00 0.00 39 1008.7
20260508174556 58 273 7.0 19.0 0.00 0.00 0.00 38 1008.7
20260508174046 59 277 5.0 11.0 0.00 0.00 0.00 38 1008.8
20260508173543 58 294 6.0 13.0 0.00 0.00 0.00 39 1008.9
20260508173042 59 239 4.0 13.0 0.00 0.00 0.00 40 1008.7
20260508172542 58 259 6.0 14.0 0.00 0.00 0.00 39 1008.7
20260508172042 58 214 6.0 15.0 0.00 0.00 0.00 38 1008.8
20260508171542 59 211 7.0 15.0 0.00 0.00 0.00 38 1008.7
20260508171045 57 233 5.0 18.0 0.00 0.00 0.00 40 1008.7
20260508170542 58 272 8.0 18.0 0.00 0.00 0.00 39 1008.7
20260508170042 59 262 5.0 15.0 0.00 0.00 0.00 38 1008.8
20260508165542 58 261 6.0 17.0 0.00 0.00 0.00 38 1008.8
20260508165043 58 224 7.0 17.0 0.00 0.00 0.00 41 1008.7
20260508164542 57 255 4.0 15.0 0.00 0.00 0.00 39 1008.6
20260508164042 57 201 6.0 15.0 0.00 0.00 0.00 42 1008.7
20260508163541 56 238 5.0 10.0 0.00 0.00 0.00 38 1008.7
20260508163041 57 186 2.0 15.0 0.00 0.00 0.00 39 1008.7
20260508162540 57 222 5.0 15.0 0.00 0.00 0.00 41 1008.8
20260508162042 60 286 6.0 13.0 0.00 0.00 0.00 39 1008.8
20260508161539 59 346 8.0 14.0 0.00 0.00 0.00 40 1008.9
20260508161041 57 230 7.0 15.0 0.00 0.00 0.00 37 1008.9
20260508160539 57 237 8.0 16.0 0.00 0.00 0.00 39 1009.1
20260508160039 58 216 7.0 15.0 0.00 0.00 0.00 39 1009.2
20260508155541 58 260 4.0 15.0 0.00 0.00 0.00 37 1009.1
20260508155041 58 260 5.0 15.0 0.00 0.00 0.00 37 1009.3
20260508154538 57 187 4.0 16.0 0.00 0.00 0.00 39 1009.4
20260508154038 58 222 5.0 16.0 0.00 0.00 0.00 41 1009.3
20260508153538 58 249 3.0 12.0 0.00 0.00 0.00 39 1009.5
20260508153037 56 253 6.0 15.0 0.00 0.00 0.00 43 1009.5
20260508152536 57 314 6.0 15.0 0.00 0.00 0.00 39 1009.4
20260508152036 58 329 6.0 13.0 0.00 0.00 0.00 39 1009.4
20260508151536 57 313 4.0 10.0 0.00 0.00 0.00 41 1009.4
20260508151036 55 289 5.0 11.0 0.00 0.00 0.00 41 1009.4
20260508150536 55 268 4.0 11.0 0.00 0.00 0.00 43 1009.4
20260508150036 55 254 5.0 11.0 0.00 0.00 0.00 43 1009.4
20260508145535 55 226 6.0 12.0 0.00 0.00 0.00 41 1009.6
20260508145034 56 260 5.0 12.0 0.00 0.00 0.00 41 1009.4
20260508144535 57 258 4.0 12.0 0.00 0.00 0.00 41 1009.4
20260508144035 59 304 7.0 13.0 0.00 0.00 0.00 40 1009.6
20260508143532 57 250 4.0 14.0 0.00 0.00 0.00 44 1009.6
20260508143032 57 304 7.0 18.0 0.00 0.00 0.00 40 1009.7
20260508142535 58 268 10.0 18.0 0.00 0.00 0.00 42 1009.7
20260508142031 57 349 7.0 15.0 0.00 0.00 0.00 40 1009.8
20260508141533 57 226 6.0 11.0 0.00 0.00 0.00 41 1009.6
20260508141029 57 194 5.0 13.0 0.00 0.00 0.00 41 1009.6
20260508140529 55 235 6.0 13.0 0.00 0.00 0.00 42 1009.7
20260508140034 56 241 4.0 13.0 0.00 0.00 0.00 43 1009.8
20260508135527 56 239 3.0 13.0 0.00 0.00 0.00 44 1009.9
20260508135026 55 235 1.0 11.0 0.00 0.00 0.00 47 1009.9
20260508134531 55 226 3.0 14.0 0.00 0.00 0.00 47 1010.0
20260508134022 54 274 5.0 14.0 0.00 0.00 0.00 46 1010.0
20260508133522 54 220 4.0 13.0 0.00 0.00 0.00 45 1009.9
20260508133019 54 227 4.0 13.0 0.00 0.00 0.00 45 1010.0
20260508132522 53 257 5.0 11.0 0.00 0.00 0.00 48 1010.0
20260508132016 53 237 3.0 14.0 0.00 0.00 0.00 47 1010.1
20260508131515 54 263 3.0 14.0 0.00 0.00 0.00 46 1010.1
20260508131014 55 288 5.0 11.0 0.00 0.00 0.00 47 1010.1
20260508130512 54 232 3.0 11.0 0.00 0.00 0.00 49 1010.0
20260508130011 54 325 6.0 11.0 0.00 0.00 0.00 48 1010.0
20260508125510 53 275 6.0 10.0 0.00 0.00 0.00 49 1010.1
20260508125009 53 294 5.0 13.0 0.00 0.00 0.00 49 1010.1
20260508124510 53 340 4.0 13.0 0.00 0.00 0.00 51 1010.1
20260508124009 52 293 6.0 13.0 0.00 0.00 0.00 49 1010.1
20260508123604 52 260 5.0 11.0 0.00 0.00 0.00 50 1010.1
20260508123002 51 295 4.0 13.0 0.00 0.00 0.00 52 1010.1
20260508122602 51 270 5.0 13.0 0.00 0.00 0.00 52 1010.2
20260508122059 50 259 2.0 13.0 0.00 0.00 0.00 55 1010.2
20260508121559 49 253 5.0 13.0 0.00 0.00 0.00 54 1010.2
20260508121057 49 258 6.0 12.0 0.00 0.00 0.00 54 1010.2
20260508120555 49 252 4.0 11.0 0.00 0.00 0.00 55 1010.2
20260508120054 49 258 5.0 8.0 0.00 0.00 0.00 55 1010.1
20260508115553 48 239 3.0 8.0 0.00 0.00 0.00 56 1010.1
20260508115051 48 312 2.0 6.0 0.00 0.00 0.00 58 1010.1
20260508114552 47 233 1.0 8.0 0.00 0.00 0.00 60 1010.1
20260508114051 47 237 3.0 8.0 0.00 0.00 0.00 61 1010.2
20260508113547 46 246 2.0 7.0 0.00 0.00 0.00 62 1010.1
20260508113057 46 253 1.0 5.0 0.00 0.00 0.00 65 1010.1
20260508112543 45 245 2.0 6.0 0.00 0.00 0.00 67 1010.1
20260508112042 45 228 1.0 4.0 0.00 0.00 0.00 69 1010.0
20260508111544 44 241 0.0 4.0 0.00 0.00 0.00 71 1010.0
20260508111041 43 239 1.0 4.0 0.00 0.00 0.00 71 1009.9
20260508110541 43 239 0.0 3.0 0.00 0.00 0.00 73 1010.0
20260508110036 42 239 0.0 3.0 0.00 0.00 0.00 74 1009.9
20260508105535 41 235 0.0 3.0 0.00 0.00 0.00 76 1009.9
20260508105033 40 228 0.0 5.0 0.00 0.00 0.00 77 1009.9
20260508104532 40 228 0.0 5.0 0.00 0.00 0.00 79 1009.9
20260508104031 39 231 1.0 3.0 0.00 0.00 0.00 79 1009.8
20260508103530 39 222 0.0 3.0 0.00 0.00 0.00 80 1009.7
20260508103035 39 222 0.0 3.0 0.00 0.00 0.00 80 1009.5
20260508102529 39 222 1.0 3.0 0.00 0.00 0.00 81 1009.4
20260508102027 39 220 0.0 2.0 0.00 0.00 0.00 81 1009.3
20260508101527 38 220 0.0 2.0 0.00 0.00 0.00 81 1009.2
20260508101126 38 221 0.0 2.0 0.00 0.00 0.00 81 1009.2
20260508100525 38 221 0.0 2.0 0.00 0.00 0.00 83 1009.3
20260508100026 37 221 0.0 3.0 0.00 0.00 0.00 84 1009.3
20260508095525 37 220 0.0 3.0 0.00 0.00 0.00 84 1009.2
20260508095027 37 217 0.0 3.0 0.00 0.00 0.00 84 1009.3
20260508094523 36 218 0.0 3.0 0.00 0.00 0.00 84 1009.1
20260508094022 36 217 0.0 0.0 0.00 0.00 0.00 83 1009.1
20260508093522 37 218 0.0 0.0 0.00 0.00 0.00 84 1009.1
20260508093021 37 217 0.0 0.0 0.00 0.00 0.00 84 1009.1
20260508092521 37 217 0.0 0.0 0.00 0.00 0.00 83 1009.0
20260508092021 37 218 0.0 0.0 0.00 0.00 0.00 83 1009.0
20260508091520 37 218 0.0 0.0 0.00 0.00 0.00 84 1009.0
20260508091021 37 218 0.0 0.0 0.00 0.00 0.00 83 1009.0
20260508090519 37 217 0.0 0.0 0.00 0.00 0.00 83 1009.0
20260508090022 37 218 0.0 0.0 0.00 0.00 0.00 83 1008.9
20260508085518 37 218 0.0 1.0 0.00 0.00 0.00 83 1008.9
20260508085018 37 218 0.0 2.0 0.00 0.00 0.00 83 1008.9
20260508084517 37 218 0.0 3.0 0.00 0.00 0.00 82 1008.7
20260508084017 36 260 0.0 0.0 0.00 0.00 0.00 81 1008.7
20260508083515 37 260 0.0 0.0 0.00 0.00 0.00 81 1008.6
20260508083014 37 260 0.0 0.0 0.00 0.00 0.00 80 1008.6
20260508082513 37 260 0.0 0.0 0.00 0.00 0.00 80 1008.6
20260508082016 37 260 0.0 0.0 0.00 0.00 0.00 80 1008.6
20260508081533 38 260 0.0 0.0 0.00 0.00 0.00 80 1008.4
20260508081014 38 260 0.0 0.0 0.00 0.00 0.00 81 1008.1
20260508080511 38 260 0.0 0.0 0.00 0.00 0.00 81 1008.2
20260508080010 38 260 0.0 0.0 0.00 0.00 0.00 81 1008.1
20260508075510 38 260 0.0 0.0 0.00 0.00 0.00 80 1008.0
20260508075010 38 260 0.0 0.0 0.00 0.00 0.00 80 1008.0
20260508074509 39 260 0.0 0.0 0.00 0.00 0.00 80 1007.9
20260508074009 39 260 0.0 0.0 0.00 0.00 0.00 80 1007.8
20260508073508 39 260 0.0 1.0 0.00 0.00 0.00 79 1007.7
20260508073008 39 260 0.0 1.0 0.00 0.00 0.00 77 1007.7
20260508072505 39 260 0.0 1.0 0.00 0.00 0.00 77 1007.7
20260508072004 39 260 0.0 0.0 0.00 0.00 0.00 77 1007.7
20260508071507 39 260 0.0 0.0 0.00 0.00 0.00 76 1007.8
20260508071003 40 260 0.0 0.0 0.00 0.00 0.00 76 1007.8
20260508070507 40 260 0.0 2.0 0.00 0.00 0.00 77 1007.8
20260508070003 39 260 0.0 2.0 0.00 0.00 0.00 78 1007.8
20260508065502 40 260 0.0 2.0 0.00 0.00 0.00 78 1007.9
20260508065003 40 260 0.0 1.0 0.00 0.00 0.00 78 1007.9
20260508064503 40 260 0.0 1.0 0.00 0.00 0.00 78 1007.8
20260508064001 40 260 0.0 0.0 0.00 0.00 0.00 78 1007.9
20260508063501 40 260 0.0 1.0 0.00 0.00 0.00 78 1007.9
20260508063117 40 260 0.0 1.0 0.00 0.00 0.00 78 1007.9
20260508062559 40 260 0.0 1.0 0.00 0.00 0.00 78 1007.9
20260508062102 40 260 0.0 1.0 0.00 0.00 0.00 78 1007.9
20260508061558 40 260 0.0 1.0 0.00 0.00 0.00 77 1007.9
20260508061058 40 259 0.0 1.0 0.00 0.00 0.00 75 1008.0
20260508060557 40 260 0.0 0.0 0.00 0.00 0.00 74 1008.0
20260508060058 40 260 0.0 0.0 0.00 0.00 0.00 74 1008.1
20260508055558 40 260 0.0 0.0 0.00 0.00 0.00 74 1008.2
20260508055056 41 260 0.0 0.0 0.00 0.00 0.00 74 1008.2
20260508054553 41 260 0.0 0.0 0.00 0.00 0.00 73 1008.3
20260508054053 41 260 0.0 0.0 0.00 0.00 0.00 73 1008.3
20260508053553 41 260 0.0 0.0 0.00 0.00 0.00 73 1008.3
20260508053049 42 260 0.0 0.0 0.00 0.00 0.00 72 1008.3
20260508052549 42 260 0.0 0.0 0.00 0.00 0.00 72 1008.3
20260508052047 42 260 0.0 0.0 0.00 0.00 0.00 71 1008.3
20260508051546 42 260 0.0 0.0 0.00 0.00 0.00 71 1008.4
20260508051045 43 260 0.0 0.0 0.00 0.00 0.00 70 1008.4
20260508050544 43 260 0.0 0.0 0.00 0.00 0.00 70 1008.5
20260508050043 43 260 0.0 0.0 0.00 0.00 0.00 69 1008.5
20260508045542 44 260 0.0 0.0 0.00 0.01 0.00 69 1008.6
20260508045041 44 260 0.0 0.0 0.00 0.01 0.00 66 1008.5
20260508044542 44 260 0.0 0.0 0.00 0.01 0.00 65 1008.7
20260508044041 45 260 0.0 1.0 0.00 0.01 0.00 66 1008.7
20260508043541 45 260 0.0 2.0 0.00 0.01 0.00 64 1008.7
20260508043040 44 260 0.0 5.0 0.00 0.01 0.00 66 1008.7
20260508042539 44 246 1.0 3.0 0.00 0.01 0.00 68 1008.7
20260508042039 44 245 0.0 3.0 0.00 0.01 0.00 68 1008.7
20260508041537 44 246 0.0 2.0 0.00 0.01 0.00 68 1008.7
20260508041036 44 246 0.0 0.0 0.00 0.01 0.00 65 1008.7
20260508040535 45 246 0.0 0.0 0.00 0.01 0.00 65 1008.7
20260508040040 45 246 0.0 0.0 0.00 0.01 0.00 65 1008.6
20260508035532 46 246 0.0 0.0 0.00 0.01 0.01 65 1008.6
20260508035036 46 246 0.0 2.0 0.00 0.01 0.01 66 1008.6
20260508034532 46 246 0.0 2.0 0.00 0.01 0.01 65 1008.5
20260508034031 46 246 0.0 1.0 0.00 0.01 0.01 64 1008.4
20260508033531 47 246 0.0 1.0 0.00 0.01 0.01 62 1008.5
20260508033031 47 246 0.0 0.0 0.00 0.01 0.01 61 1008.5
20260508032531 47 246 0.0 0.0 0.00 0.01 0.01 61 1008.5
20260508032030 47 246 0.0 3.0 0.00 0.01 0.01 60 1008.6
20260508031531 47 246 0.0 3.0 0.00 0.01 0.01 60 1008.4
20260508031031 47 246 0.0 4.0 0.00 0.01 0.01 61 1008.4
20260508030531 46 246 0.0 4.0 0.00 0.01 0.01 64 1008.5
20260508030031 46 245 0.0 2.0 0.00 0.01 0.01 65 1008.4
20260508025531 46 244 0.0 2.0 0.00 0.01 0.01 66 1008.5
20260508025030 46 245 0.0 1.0 0.00 0.01 0.01 66 1008.4
20260508024543 46 245 0.0 2.0 0.00 0.01 0.01 66 1008.4
20260508024030 46 245 0.0 3.0 0.00 0.01 0.01 66 1008.4
20260508023528 46 245 0.0 3.0 0.00 0.01 0.01 67 1008.2
20260508023028 46 244 1.0 3.0 0.00 0.01 0.01 66 1008.2
20260508022527 46 245 0.0 0.0 0.00 0.01 0.01 67 1008.3
20260508022027 47 244 0.0 3.0 0.00 0.01 0.01 65 1008.5
20260508021527 47 244 0.0 3.0 0.00 0.01 0.01 66 1008.3
20260508021026 47 245 0.0 3.0 0.00 0.01 0.01 66 1008.3
20260508020525 47 244 0.0 3.0 0.00 0.01 0.01 65 1008.3
20260508020026 47 244 0.0 2.0 0.00 0.01 0.01 65 1008.3
20260508015525 48 244 0.0 2.0 0.00 0.01 0.01 64 1008.3
20260508015025 48 244 0.0 0.0 0.00 0.01 0.01 62 1008.2
20260508014529 48 243 0.0 0.0 0.00 0.01 0.01 62 1008.1
20260508014027 49 243 0.0 2.0 0.00 0.01 0.01 60 1008.0
20260508013526 49 243 0.0 2.0 0.00 0.01 0.01 58 1007.9
20260508013024 49 244 0.0 4.0 0.00 0.01 0.01 59 1007.9
20260508012524 50 244 0.0 4.0 0.00 0.01 0.01 58 1007.8
20260508012024 50 249 0.0 3.0 0.00 0.01 0.01 57 1007.7
20260508011525 50 254 0.0 2.0 0.00 0.01 0.01 55 1007.6
20260508011024 51 254 0.0 0.0 0.00 0.01 0.01 55 1007.7
20260508010524 51 255 0.0 0.0 0.00 0.01 0.01 53 1007.7
20260508010032 52 254 0.0 1.0 0.00 0.01 0.01 48 1007.6
20260508005524 53 255 0.0 1.0 0.00 0.01 0.01 49 1007.5
20260508005023 53 254 0.0 4.0 0.00 0.01 0.01 46 1007.4
20260508004523 53 255 0.0 4.0 0.00 0.01 0.01 45 1007.3
20260508004024 53 274 1.0 4.0 0.00 0.01 0.01 45 1007.3
20260508003523 54 275 1.0 6.0 0.00 0.01 0.01 44 1007.3
20260508003023 54 248 1.0 7.0 0.00 0.01 0.01 43 1007.3
20260508002523 54 258 2.0 9.0 0.00 0.01 0.01 43 1007.3
20260508002023 54 220 2.0 10.0 0.00 0.01 0.01 43 1007.1
20260508001522 54 272 1.0 10.0 0.00 0.01 0.01 43 1007.1
20260508001022 54 268 1.0 7.0 0.00 0.01 0.01 43 1007.1
20260508000523 55 262 2.0 7.0 0.00 0.01 0.01 43 1007.0
20260508000022 55 258 0.0 10.0 0.00 0.01 0.01 42 1006.9
20260507235522 55 279 3.0 10.0 0.00 0.07 0.01 41 1006.8
20260507235022 56 233 0.0 8.0 0.00 0.07 0.01 41 1006.8
20260507234522 56 253 1.0 8.0 0.00 0.07 0.01 40 1006.7
20260507234022 56 251 1.0 8.0 0.00 0.07 0.01 41 1006.7
20260507233522 56 230 2.0 12.0 0.00 0.07 0.01 39 1006.7
20260507233035 57 281 4.0 12.0 0.00 0.07 0.01 39 1006.6
20260507232522 57 255 2.0 8.0 0.00 0.07 0.01 39 1006.6
20260507232021 57 278 4.0 8.0 0.00 0.07 0.01 39 1006.4
20260507231532 57 245 2.0 13.0 0.00 0.07 0.01 40 1006.5
20260507231021 58 229 4.0 13.0 0.00 0.07 0.01 37 1006.4
20260507230520 58 234 5.0 10.0 0.00 0.07 0.01 38 1006.4
20260507230020 58 223 4.0 10.0 0.00 0.07 0.01 38 1006.4
20260507225521 59 262 1.0 8.0 0.00 0.14 0.01 37 1006.3
20260507225021 59 254 4.0 12.0 0.00 0.14 0.01 36 1006.3
20260507224521 59 264 4.0 12.0 0.00 0.14 0.01 35 1006.3
20260507224020 59 263 4.0 12.0 0.00 0.14 0.01 36 1006.1
20260507223522 60 251 5.0 12.0 0.00 0.14 0.01 36 1006.1
20260507223020 60 247 4.0 12.0 0.00 0.14 0.01 38 1006.1
20260507222520 60 258 6.0 12.0 0.00 0.14 0.01 36 1006.0
20260507222019 60 269 5.0 13.0 0.00 0.14 0.01 36 1006.0
20260507221525 60 339 5.0 13.0 0.00 0.14 0.01 36 1006.1
20260507221018 61 280 2.0 13.0 0.00 0.14 0.01 35 1005.9
20260507220520 61 278 4.0 13.0 0.00 0.14 0.01 35 1005.9
20260507220021 61 259 4.0 10.0 0.00 0.14 0.01 36 1005.8
20260507215518 61 254 3.0 14.0 0.00 0.16 0.01 36 1005.7
20260507215017 62 323 5.0 14.0 0.00 0.16 0.01 35 1005.8
20260507214519 62 266 5.0 18.0 0.00 0.16 0.01 34 1005.8
20260507214018 62 310 8.0 18.0 0.00 0.16 0.01 36 1005.8
20260507213517 62 231 8.0 15.0 0.00 0.16 0.01 34 1005.6
20260507213018 62 323 7.0 15.0 0.00 0.16 0.01 34 1005.6
20260507212516 61 264 5.0 11.0 0.00 0.16 0.01 36 1005.6
20260507212016 61 225 4.0 14.0 0.00 0.16 0.01 34 1005.7
20260507211522 64 252 6.0 14.0 0.00 0.16 0.01 34 1005.7
20260507211017 64 276 6.0 14.0 0.00 0.16 0.01 35 1005.7
20260507210516 63 316 3.0 12.0 0.00 0.16 0.01 38 1005.7
20260507210016 62 258 7.0 14.0 0.00 0.16 0.01 37 1005.7
20260507205516 62 327 4.0 14.0 0.00 0.21 0.01 36 1005.6
20260507205015 63 270 6.0 15.0 0.00 0.21 0.01 35 1005.5
20260507204516 62 222 5.0 20.0 0.00 0.21 0.01 38 1005.5
20260507204016 63 228 10.0 20.0 0.00 0.21 0.01 33 1005.6
20260507203518 64 260 8.0 15.0 0.00 0.21 0.01 35 1005.4
20260507203015 63 231 5.0 14.0 0.00 0.21 0.01 35 1005.5
20260507202515 64 293 6.0 14.0 0.00 0.21 0.01 35 1005.5
20260507202016 65 237 6.0 14.0 0.00 0.21 0.01 34 1005.5
20260507201514 64 240 6.0 14.0 0.00 0.21 0.01 32 1005.5
20260507201014 64 290 3.0 13.0 0.00 0.21 0.01 33 1005.5
20260507200513 64 253 6.0 13.0 0.00 0.21 0.01 35 1005.7
20260507200013 64 254 3.0 18.0 0.00 0.21 0.01 33 1005.6
20260507195516 62 231 9.0 18.0 0.00 0.25 0.01 36 1005.7
20260507195015 62 226 6.0 12.0 0.00 0.25 0.01 35 1005.7
20260507194514 62 231 8.0 13.0 0.00 0.25 0.01 34 1005.8
20260507194012 63 262 6.0 14.0 0.00 0.25 0.01 35 1005.9
20260507193511 64 250 7.0 13.0 0.00 0.25 0.01 36 1005.8
20260507193010 62 168 5.0 17.0 0.00 0.25 0.01 32 1005.8
20260507192509 64 213 8.0 17.0 0.00 0.25 0.01 33 1005.9
20260507192010 64 238 4.0 15.0 0.00 0.25 0.01 35 1005.9
20260507191509 64 252 6.0 15.0 0.00 0.25 0.01 33 1006.0